Location: La Comballaz
(46.3780°N, 7.0817°E)
Time: 23:05:33
(UTC+00:00)

STARLINK-1245 - Pass Details

Date: 09 April 2020
Orbit: 549 x 550 km, 53.0° (Epoch: 24 May)

Event Time Altitude Azimuth Distance (km) Brightness Sun altitude
Rises 19:58:11 0° 296° (WNW) 2,724 8.9 -17.7°
Reaches altitude 10° 20:00:33 10° 287° (WNW) 1,827 7.4 -18.0°
Maximum altitude 20:04:19 34° 222° (SW) 918 4.8 -18.6°
Enters shadow 20:05:44 26° 184° (S) 1,091 4.8 -18.8°
